TimeEDT,TemperatureF,Dew PointF,Humidity,Sea Level PressureIn,VisibilityMPH,Wind Direction,Wind SpeedMPH,Gust SpeedMPH,PrecipitationIn,Events,Conditions,WindDirDegrees,DateUTC
12:53 AM,36.0,30.9,82,30.14,10.0,South,5.8,-,N/A,,Clear,170,2012-10-09 04:53:00
1:53 AM,36.0,33.1,89,30.14,10.0,South,8.1,-,N/A,,Clear,170,2012-10-09 05:53:00
2:53 AM,39.0,36.0,89,30.14,10.0,South,8.1,-,N/A,,Clear,190,2012-10-09 06:53:00
4:53 AM,37.9,35.1,89,30.12,8.0,South,6.9,-,N/A,,Clear,180,2012-10-09 08:53:00
5:53 AM,37.9,36.0,93,30.12,7.0,South,9.2,-,N/A,,Clear,180,2012-10-09 09:53:00
6:53 AM,36.0,34.0,93,30.14,6.0,South,8.1,-,N/A,,Clear,180,2012-10-09 10:53:00
8:53 AM,42.1,39.0,89,30.13,9.0,South,11.5,-,N/A,,Clear,170,2012-10-09 12:53:00
9:53 AM,46.9,39.9,77,30.13,10.0,SSW,9.2,-,N/A,,Clear,200,2012-10-09 13:53:00
10:53 AM,52.0,39.9,63,30.12,10.0,South,12.7,-,N/A,,Clear,190,2012-10-09 14:53:00
11:53 AM,57.0,39.0,51,30.09,10.0,SSW,16.1,20.7,N/A,,Clear,210,2012-10-09 15:53:00
12:53 PM,57.9,37.0,46,30.07,10.0,SSW,15.0,20.7,N/A,,Clear,210,2012-10-09 16:53:00
1:53 PM,59.0,36.0,42,30.04,10.0,SSW,12.7,-,N/A,,Clear,210,2012-10-09 17:53:00
2:53 PM,60.1,35.1,39,30.00,10.0,SW,9.2,23.0,N/A,,Clear,220,2012-10-09 18:53:00
3:53 PM,60.1,33.1,36,29.99,10.0,SSW,16.1,-,N/A,,Clear,210,2012-10-09 19:53:00
4:53 PM,61.0,34.0,36,29.97,10.0,SSW,13.8,23.0,N/A,,Clear,210,2012-10-09 20:53:00
5:53 PM,59.0,35.1,41,29.95,10.0,SSW,13.8,-,N/A,,Clear,200,2012-10-09 21:53:00
6:53 PM,55.9,36.0,47,29.94,10.0,South,11.5,-,N/A,,Clear,190,2012-10-09 22:53:00
7:53 PM,50.0,37.0,61,29.95,10.0,South,8.1,-,N/A,,Clear,180,2012-10-09 23:53:00
8:53 PM,51.1,37.0,59,29.95,10.0,South,9.2,-,N/A,,Clear,190,2012-10-10 00:53:00
9:53 PM,51.1,37.9,61,29.94,10.0,South,11.5,-,N/A,,Clear,180,2012-10-10 01:53:00
10:53 PM,48.0,37.9,68,29.93,10.0,SSE,11.5,-,N/A,,Clear,160,2012-10-10 02:53:00
11:53 PM,45.0,37.9,76,29.91,10.0,South,9.2,-,N/A,,Clear,170,2012-10-10 03:53:00